Home > Weather > Wittenberg > Past weeks

Flag for Germany Weather for the Past 2 Weeks in Wittenberg, Saxony-Anhalt, Germany

Now
54 °F

Scattered clouds.


Feels Like: 49 °F
Forecast: 40 / 63 °F
Wind: 14 mph from South

Location: Holzdorf

Current Time: Apr 29, 2016 at 1:10:58 PM

Latest Report: Apr 29, 2016 at 12:20 PM


Visibility: N/A

Pressure: 30.09 "Hg

Humidity: 35%

Dew Point: 27 °F

Location of WittenbergLocation

Historic Weather in Wittenberg — Graph

°F

Wittenberg Temperature Yesterday

Maximum temperature yesterday: 50 °F (at 1:20 PM)
Minimum temperature yesterday: 34 °F (at 11:20 PM)
Average temperature yesterday: 42 °F

High & Low Weather Summary for the Past Weeks

 TemperatureHumidityPressure
High61 °F (Apr 21, 4:20 PM)100% (Apr 14, 11:20 PM)30.39 "Hg (Apr 14, 11:20 PM)
Low28 °F (Apr 21, 4:20 AM)29% (Apr 22, 5:20 PM)29.47 "Hg (Apr 26, 5:20 AM)
Average44 °F73%29.89 "Hg
* Reported Apr 14 12:20 PM — Apr 29 12:00 Noon, Wittenberg, Weather by CustomWeather, © 2016

Note: Actual official high and low records may vary slightly from our data, if they occured in-between our weather recording intervals... More about our weather records

Advertising

Wittenberg Weather History for the Previous 24 Hours

Scroll right to see more
 ConditionsComfort  
Time TempWeatherWind HumidityBarometerVisibility
12:00 PM
Fri, Apr 29
54 °FScattered clouds.9 mph35%30.09 "HgN/A
11:20 AM52 °FScattered clouds.13 mph47%30.09 "HgN/A
10:20 AM52 °FScattered clouds.8 mph58%30.09 "HgN/A
9:20 AM46 °FScattered clouds.8 mph66%30.09 "HgN/A
8:20 AM41 °FPartly sunny.9 mph76%30.09 "HgN/A
7:20 AM34 °FScattered clouds.6 mph93%30.09 "HgN/A
6:20 AM30 °FPassing clouds.5 mph100%30.07 "HgN/A
5:20 AM30 °FFog.2 mph93%30.07 "HgN/A
4:20 AM30 °FChilly.2 mph100%30.07 "HgN/A
3:20 AM30 °FChilly.5 mph100%30.07 "HgN/A
2:20 AM30 °FChilly.1 mph93%30.07 "HgN/A
1:20 AM30 °FChilly.2 mph100%30.07 "HgN/A
12:20 AM32 °FChilly.2 mph93%30.04 "HgN/A
12:00 AM32 °FPassing clouds.2 mph93%30.04 "HgN/A
11:20 PM
Thu, Apr 28
34 °FPassing clouds.1 mph93%30.04 "HgN/A
10:20 PM36 °FPassing clouds.2 mph93%30.04 "HgN/A
9:20 PM37 °FPassing clouds.1 mph93%30.01 "HgN/A
8:20 PM43 °FScattered showers. Scattered clouds.2 mph76%29.98 "HgN/A
7:20 PM46 °FScattered showers. Broken clouds.7 mph62%29.98 "HgN/A
6:20 PM45 °FSprinkles. Broken clouds.12 mph71%29.98 "HgN/A
5:20 PM48 °FSprinkles. Broken clouds.10 mph54%29.95 "HgN/A
4:20 PM48 °FScattered showers. Scattered clouds.8 mph66%29.95 "HgN/A
3:20 PM43 °FRain showers. Broken clouds.12 mph71%29.95 "HgN/A
2:57 PM45 °FSprinkles. Broken clouds.5 mph76%29.95 "HgN/A
2:20 PM43 °FScattered showers. Partly sunny.13 mph76%29.92 "HgN/A
1:20 PM50 °FScattered showers. Partly sunny.16 mph47%29.92 "HgN/A
Weather by CustomWeather, © 2016

See weather overviewHow to use our weather pages